Logan, UT

5:14 AM MST on January 16, 2018 (GMT -0700)
Logan-Cache

Weather History for KLGU - July, 2013

Change the Weather History Date:

Thursday, July 18, 2013

  Actual Average Record
Temperature  
Mean Temperature 77 °F -  
Max Temperature 96 °F 89 °F 100 °F (1960)
Min Temperature 59 °F 55 °F 46 °F (2005)
Cooling Degree Days 12    
Growing Degree Days 27 (Base 50)    
Moisture  
Dew Point 52 °F    
Average Humidity 47    
Maximum Humidity 90    
Minimum Humidity 15    
Precipitation  
Precipitation 0.00 in - - ()
Sea Level Pressure  
Sea Level Pressure 29.96 in    
Wind  
Wind Speed 4 mph (North)    
Max Wind Speed 10 mph    
Max Gust Speed -    
Visibility 10 miles    
Events      
Averages and records for this station are not official NWS values.
T = Trace of Precipitation, MM = Missing Value Source: NWS Daily Summary

Daily Weather History Graph

Daily Weather History Graph

Search for Another Location

Airport or City:

Trip Planner

Search our weather history database for the weather conditions in past years. The results will help you decide how hot, cold, wet, or windy it might be!

Date:

Astronomy

Jul. 18, 2013 Rise Set
Actual Time 6:08 AM MDT 8:58 PM MDT
Civil Twilight 5:35 AM MDT 9:31 PM MDT
Nautical Twilight 4:54 AM MDT 10:12 PM MDT
Astronomical Twilight 4:06 AM MDT 10:59 PM MDT
Moon 4:58 PM MDT (7/18) 2:02 AM MDT (7/18)
Length of Visible Light 15h 55m
Length of Day
14h 49m
Waxing Gibbous, 78% of the Moon is Illuminated
Jul 18
Waxing Gibbous
Jul 22
Full
Jul 29
Last Quarter
Aug 6
New
Aug 14
First Quarter

Hourly Weather History & Observations

Time (MDT) Temp. Heat Index Dew Point Humidity Pressure Visibility Wind Dir Wind Speed Gust Speed Precip Events Conditions
12:51 AM 69.1 °F - 55.9 °F 63% 29.98 in 10.0 mi Calm Calm - N/A   Clear
1:51 AM 66.0 °F - 55.9 °F 70% 29.99 in 10.0 mi Calm Calm - N/A   Clear
2:51 AM 66.9 °F - 55.0 °F 66% 29.98 in 10.0 mi East 8.1 mph - N/A   Clear
3:51 AM 60.1 °F - 57.0 °F 90% 30.00 in 10.0 mi NNW 9.2 mph - N/A   Partly Cloudy
4:51 AM 64.9 °F - 55.0 °F 70% 29.98 in 10.0 mi SE 3.5 mph - N/A   Clear
5:51 AM 59.0 °F - 55.0 °F 87% 30.01 in 10.0 mi NNW 8.1 mph - N/A   Clear
6:51 AM 64.9 °F - 55.0 °F 70% 30.01 in 10.0 mi Calm Calm - N/A   Clear
7:51 AM 64.9 °F - 57.0 °F 75% 30.03 in 10.0 mi Calm Calm - N/A   Clear
8:51 AM 71.1 °F - 55.9 °F 59% 30.05 in 10.0 mi Calm Calm - N/A   Clear
9:51 AM 75.9 °F - 57.9 °F 54% 30.04 in 10.0 mi Variable 3.5 mph - N/A   Clear
10:51 AM 80.1 °F 80.6 °F 57.9 °F 47% 30.02 in 10.0 mi Variable 3.5 mph - N/A   Clear
11:51 AM 84.0 °F 83.0 °F 55.9 °F 38% 30.01 in 10.0 mi Variable 5.8 mph - N/A   Clear
12:51 PM 89.1 °F 86.9 °F 54.0 °F 30% 29.98 in 10.0 mi North 4.6 mph - N/A   Clear
1:51 PM 93.0 °F - 52.0 °F 25% 29.95 in 10.0 mi NNW 8.1 mph - N/A   Clear
2:51 PM 93.9 °F - 50.0 °F 22% 29.92 in 10.0 mi North 5.8 mph - N/A   Clear
3:51 PM 95.0 °F - 41.0 °F 15% 29.91 in 10.0 mi North 5.8 mph - N/A   Clear
4:51 PM 91.0 °F - 46.9 °F 22% 29.91 in 10.0 mi Variable 3.5 mph - N/A   Clear
5:51 PM 93.9 °F - 44.1 °F 18% 29.88 in 10.0 mi Variable 4.6 mph - N/A   Clear
6:51 PM 93.9 °F - 44.1 °F 18% 29.86 in 10.0 mi Variable 4.6 mph - N/A   Clear
7:51 PM 91.9 °F - 51.1 °F 25% 29.87 in 10.0 mi NNW 4.6 mph - N/A   Clear
8:51 PM 79.0 °F - 48.0 °F 34% 29.91 in 10.0 mi NNW 10.4 mph - N/A   Clear
9:51 PM 73.0 °F - 50.0 °F 44% 29.92 in 10.0 mi NNE 5.8 mph - N/A   Clear
10:51 PM 73.0 °F - 46.9 °F 39% 29.93 in 10.0 mi WSW 5.8 mph - N/A   Clear
11:51 PM 71.1 °F - 48.0 °F 44% 29.94 in 10.0 mi Calm Calm - N/A   Clear